Weather History for Great Bend, KS

Change the Weather History Date:

Saturday, November 12, 2011

  Actual Average Record
Temperature  
Mean Temperature 50 °F -  
Max Temperature 66 °F 56 °F 78 °F (1989)
Min Temperature 35 °F 33 °F 14 °F (2014)
Degree Days  
Heating Degree Days 14    
Moisture  
Dew Point 34 °F    
Average Humidity 61    
Maximum Humidity 87    
Minimum Humidity 30    
Precipitation  
Precipitation 0.00 in - - ()
Sea Level Pressure  
Sea Level Pressure 29.54 in    
Wind  
Wind Speed 9 mph (SSW)    
Max Wind Speed 16 mph    
Max Gust Speed 22 mph    
Visibility 10 miles    
Events      
Averages and records for this station are not official NWS values.
T = Trace of Precipitation, MM = Missing Value Source: NWS Daily Summary

Daily Weather History Graph

Daily Weather History Graph

Search for Another Location

Airport:

Trip Planner

Search our weather history database for the weather conditions in past years. The results will help you decide how hot, cold, wet, or windy it might be!

Date:

Astronomy

Nov. 12, 2011 Rise Set
Actual Time 7:13 AM CST 5:25 PM CST
Civil Twilight 6:45 AM CST 5:53 PM CST
Nautical Twilight 6:13 AM CST 6:25 PM CST
Astronomical Twilight 5:42 AM CST 6:56 PM CST
Moon 6:44 PM CST (11/12) 8:55 AM CST (11/12)
Length of Visible Light 11h 08m
Length of Day
10h 11m
Full, 97% of the Moon is Illuminated
Nov 12
Full
Nov 18
Last Quarter
Nov 25
New
Dec 2
First Quarter
Dec 10
Full

Hourly Weather History & Observations

Time (CST) Temp. Windchill Dew Point Humidity Pressure Visibility Wind Dir Wind Speed Gust Speed Precip Events Conditions
12:15 AM 37.4 °F 32.1 °F 30.2 °F 75% 29.72 in 10.0 mi SSW 6.9 mph - N/A   Clear
12:35 AM 35.6 °F 30.7 °F 30.2 °F 81% 29.70 in 10.0 mi SSW 5.8 mph - N/A   Clear
12:55 AM 35.6 °F 28.6 °F 28.4 °F 75% 29.70 in 10.0 mi South 9.2 mph - N/A   Clear
1:15 AM 35.6 °F 31.7 °F 30.2 °F 81% 29.69 in 10.0 mi SSW 4.6 mph - N/A   Clear
1:35 AM 37.4 °F 32.8 °F 30.2 °F 75% 29.68 in 10.0 mi South 5.8 mph - N/A   Clear
1:55 AM 35.6 °F 29.9 °F 30.2 °F 81% 29.66 in 10.0 mi South 6.9 mph - N/A   Clear
2:35 AM 37.4 °F 32.8 °F 32.0 °F 81% 29.64 in 10.0 mi South 5.8 mph - N/A   Clear
2:55 AM 37.4 °F 32.8 °F 30.2 °F 75% 29.62 in 10.0 mi SE 5.8 mph - N/A   Clear
3:15 AM 35.6 °F 29.2 °F 30.2 °F 81% 29.61 in 10.0 mi SSE 8.1 mph - N/A   Clear
3:55 AM 37.4 °F 30.8 °F 33.8 °F 87% 29.59 in 10.0 mi SSE 9.2 mph - N/A   Clear
4:15 AM 37.4 °F 31.4 °F 33.8 °F 87% 29.57 in 10.0 mi SE 8.1 mph - N/A   Clear
4:35 AM 39.2 °F 32.5 °F 33.8 °F 81% 29.57 in 10.0 mi SSE 10.4 mph - N/A   Clear
4:55 AM 39.2 °F 33.6 °F 33.8 °F 81% 29.57 in 10.0 mi SSE 8.1 mph - N/A   Clear
5:15 AM 37.4 °F 32.8 °F 33.8 °F 87% 29.55 in 10.0 mi SE 5.8 mph - N/A   Clear
5:35 AM 37.4 °F 34.9 °F 33.8 °F 87% 29.56 in 10.0 mi SSE 3.5 mph - N/A   Clear
5:55 AM 37.4 °F 32.8 °F 33.8 °F 87% 29.55 in 10.0 mi SE 5.8 mph - N/A   Clear
6:15 AM 37.4 °F 32.1 °F 33.8 °F 87% 29.54 in 10.0 mi SSE 6.9 mph - N/A   Clear
6:35 AM 37.4 °F 32.8 °F 33.8 °F 87% 29.52 in 10.0 mi South 5.8 mph - N/A   Clear
6:55 AM 39.2 °F 35.9 °F 33.8 °F 81% 29.51 in 10.0 mi South 4.6 mph - N/A   Clear
7:15 AM 39.2 °F 34.2 °F 33.8 °F 81% 29.51 in 10.0 mi SSW 6.9 mph - N/A   Clear
7:35 AM 42.8 °F 37.0 °F 33.8 °F 70% 29.52 in 10.0 mi South 10.4 mph - N/A   Clear
7:55 AM 41.0 °F 36.4 °F 33.8 °F 76% 29.52 in 10.0 mi SSW 6.9 mph - N/A   Clear
8:15 AM 42.8 °F 35.8 °F 32.0 °F 66% 29.50 in 10.0 mi South 13.8 mph - N/A   Clear
8:35 AM 42.8 °F 36.6 °F 33.8 °F 70% 29.50 in 10.0 mi South 11.5 mph - N/A   Clear
8:55 AM 42.8 °F 37.5 °F 33.8 °F 70% 29.51 in 10.0 mi SSW 9.2 mph - N/A   Clear
9:15 AM 44.6 °F 37.8 °F 33.8 °F 66% 29.51 in 10.0 mi South 15.0 mph - N/A   Clear
9:35 AM 44.6 °F 38.4 °F 35.6 °F 71% 29.49 in 10.0 mi SSW 12.7 mph - N/A   Clear
10:15 AM 48.2 °F - 35.6 °F 62% 29.50 in 10.0 mi SSW 12.7 mph - N/A   Clear
10:35 AM 50.0 °F - 35.6 °F 58% 29.51 in 10.0 mi SW 15.0 mph - N/A   Clear
10:55 AM 51.8 °F - 35.6 °F 54% 29.50 in 10.0 mi WSW 16.1 mph - N/A   Clear
11:15 AM 51.8 °F - 35.6 °F 54% 29.51 in 10.0 mi WSW 13.8 mph - N/A   Clear
11:35 AM 51.8 °F - 37.4 °F 58% 29.52 in 10.0 mi West 12.7 mph - N/A   Clear
12:15 PM 53.6 °F - 37.4 °F 54% 29.51 in 10.0 mi West 15.0 mph 19.6 mph N/A   Clear
12:55 PM 55.4 °F - 37.4 °F 51% 29.50 in 10.0 mi West 11.5 mph - N/A   Clear
1:15 PM 57.2 °F - 37.4 °F 48% 29.50 in 10.0 mi West 15.0 mph - N/A   Clear
1:35 PM 59.0 °F - 37.4 °F 45% 29.50 in 10.0 mi West 15.0 mph 21.9 mph N/A   Clear
1:55 PM 62.6 °F - 37.4 °F 39% 29.49 in 10.0 mi West 15.0 mph - N/A   Clear
2:15 PM 62.6 °F - 37.4 °F 39% 29.49 in 10.0 mi West 16.1 mph - N/A   Clear
2:35 PM 64.4 °F - 37.4 °F 37% 29.51 in 10.0 mi West 16.1 mph - N/A   Clear
2:55 PM 66.2 °F - 35.6 °F 32% 29.50 in 10.0 mi West 15.0 mph - N/A   Clear
3:15 PM 66.2 °F - 35.6 °F 32% 29.51 in 10.0 mi West 16.1 mph - N/A   Clear
3:35 PM 66.2 °F - 33.8 °F 30% 29.51 in 10.0 mi West 12.7 mph - N/A   Clear
3:55 PM 66.2 °F - 33.8 °F 30% 29.50 in 10.0 mi WNW 9.2 mph - N/A   Clear
4:15 PM 66.2 °F - 33.8 °F 30% 29.51 in 10.0 mi West 3.5 mph - N/A   Clear
4:35 PM 66.2 °F - 33.8 °F 30% 29.51 in 10.0 mi SW 4.6 mph - N/A   Clear
4:55 PM 64.4 °F - 33.8 °F 32% 29.52 in 10.0 mi SSW 6.9 mph - N/A   Clear
5:15 PM 60.8 °F - 30.2 °F 31% 29.52 in 10.0 mi SSW 10.4 mph - N/A   Clear
5:35 PM 57.2 °F - 32.0 °F 38% 29.53 in 10.0 mi SSW 10.4 mph - N/A   Clear
5:55 PM 51.8 °F - 35.6 °F 54% 29.53 in 10.0 mi SSW 10.4 mph - N/A   Clear
6:15 PM 50.0 °F - 33.8 °F 54% 29.53 in 10.0 mi South 10.4 mph - N/A   Clear
6:35 PM 48.2 °F - 33.8 °F 58% 29.52 in 10.0 mi South 10.4 mph - N/A   Clear
6:55 PM 48.2 °F - 33.8 °F 58% 29.52 in 10.0 mi South 11.5 mph - N/A   Clear
7:35 PM 51.8 °F - 30.2 °F 44% 29.50 in 10.0 mi South 12.7 mph - N/A   Clear
8:15 PM 53.6 °F - 30.2 °F 41% 29.49 in 10.0 mi South 12.7 mph - N/A   Clear
8:35 PM 51.8 °F - 30.2 °F 44% 29.48 in 10.0 mi South 11.5 mph - N/A   Clear
8:55 PM 51.8 °F - 30.2 °F 44% 29.47 in 10.0 mi South 12.7 mph - N/A   Clear
9:15 PM 48.2 °F - 30.2 °F 50% 29.47 in 10.0 mi South 12.7 mph - N/A   Clear
9:35 PM 50.0 °F - 30.2 °F 47% 29.46 in 10.0 mi South 13.8 mph - N/A   Clear
9:55 PM 51.8 °F - 33.8 °F 50% 29.44 in 10.0 mi South 17.3 mph - N/A   Clear
10:15 PM 53.6 °F - 33.8 °F 47% 29.42 in 10.0 mi South 17.3 mph - N/A   Clear
10:35 PM 51.8 °F - 33.8 °F 50% 29.40 in 10.0 mi South 17.3 mph - N/A   Clear
10:55 PM 51.8 °F - 33.8 °F 50% 29.40 in 10.0 mi SSW 13.8 mph - N/A   Clear
11:15 PM 51.8 °F - 33.8 °F 50% 29.40 in 10.0 mi SSW 13.8 mph - N/A   Clear
11:35 PM 51.8 °F - 33.8 °F 50% 29.41 in 10.0 mi SSW 10.4 mph - N/A   Clear
11:55 PM 50.0 °F - 33.8 °F 54% 29.40 in 10.0 mi SSW 12.7 mph - N/A   Clear